YV2355 SVVG-SVVL

Flight info

Callsign YV2355
Flight time 0h 41m
Altitude 9500
Route DCT
Aircraft C208/L-SDC/C

Departure

Time 2026-04-14 01:20
Airport Juan Pablo Pérez Alfonso Airport (SVVG)

Arrival

Time 2026-04-14 02:01
Airport Dr. Antonio Nicolás Briceño Airport (SVVL)
Time Latitude Longitude Altitude Speed Heading
2026-04-14 01:06 8.62323 -71.66262 278 ft 0 kts 173°
2026-04-14 01:16 8.62322 -71.66262 278 ft 1 kts 185°
2026-04-14 01:16 8.62334 -71.66268 278 ft 6 kts 11°
2026-04-14 01:18 8.62534 -71.66409 279 ft 27 kts 258°
2026-04-14 01:18 8.62489 -71.66738 278 ft 66 kts 262°
2026-04-14 01:19 8.62409 -71.67286 314 ft 85 kts 263°
2026-04-14 01:19 8.62321 -71.67900 405 ft 90 kts 263°
2026-04-14 01:19 8.62234 -71.68529 521 ft 90 kts 268°
2026-04-14 01:19 8.62449 -71.69066 661 ft 86 kts 326°
2026-04-14 01:20 8.63019 -71.69102 753 ft 88 kts 29°
2026-04-14 01:20 8.63454 -71.68671 875 ft 90 kts 47°
2026-04-14 01:20 8.63930 -71.68147 944 ft 109 kts 46°
2026-04-14 01:20 8.64513 -71.67604 1103 ft 118 kts 39°
2026-04-14 01:21 8.65140 -71.67039 1270 ft 124 kts 40°
2026-04-14 01:21 8.65796 -71.66440 1437 ft 131 kts 41°
2026-04-14 01:21 8.66446 -71.65789 1608 ft 135 kts 44°
2026-04-14 01:21 8.67107 -71.65118 1816 ft 135 kts 43°
2026-04-14 01:22 8.67765 -71.64446 2024 ft 134 kts 44°
2026-04-14 01:22 8.68418 -71.63777 2246 ft 133 kts 44°
2026-04-14 01:22 8.69068 -71.63114 2465 ft 132 kts 43°
2026-04-14 01:22 8.69704 -71.62457 2687 ft 130 kts 45°
2026-04-14 01:23 8.70311 -71.61788 2909 ft 128 kts 45°
2026-04-14 01:23 8.70913 -71.61119 3129 ft 129 kts 45°
2026-04-14 01:23 8.71510 -71.60455 3357 ft 126 kts 45°
2026-04-14 01:23 8.72093 -71.59813 3584 ft 126 kts 46°
2026-04-14 01:24 8.72692 -71.59155 3805 ft 125 kts 45°
2026-04-14 01:24 8.73272 -71.58501 4025 ft 125 kts 48°
2026-04-14 01:24 8.73824 -71.57841 4224 ft 125 kts 48°
2026-04-14 01:24 8.74394 -71.57162 4424 ft 127 kts 49°
2026-04-14 01:25 8.74963 -71.56482 4601 ft 130 kts 49°
2026-04-14 01:25 8.75556 -71.55775 4778 ft 133 kts 49°
2026-04-14 01:25 8.76156 -71.55060 4954 ft 134 kts 49°
2026-04-14 01:25 8.76735 -71.54370 5125 ft 135 kts 49°
2026-04-14 01:26 8.77344 -71.53645 5298 ft 136 kts 49°
2026-04-14 01:26 8.77954 -71.52917 5475 ft 135 kts 49°
2026-04-14 01:26 8.78563 -71.52191 5648 ft 135 kts 49°
2026-04-14 01:26 8.79173 -71.51463 5825 ft 136 kts 49°
2026-04-14 01:27 8.79783 -71.50735 5994 ft 136 kts 50°
2026-04-14 01:27 8.80397 -71.50004 6166 ft 136 kts 50°
2026-04-14 01:27 8.81008 -71.49273 6340 ft 136 kts 50°
2026-04-14 01:27 8.81614 -71.48552 6512 ft 137 kts 50°
2026-04-14 01:28 8.82229 -71.47819 6683 ft 137 kts 50°
2026-04-14 01:28 8.82845 -71.47085 6861 ft 137 kts 50°
2026-04-14 01:28 8.83465 -71.46348 7032 ft 137 kts 50°
2026-04-14 01:28 8.84079 -71.45616 7203 ft 137 kts 50°
2026-04-14 01:29 8.84690 -71.44879 7377 ft 137 kts 50°
2026-04-14 01:29 8.85308 -71.44145 7550 ft 136 kts 49°
2026-04-14 01:29 8.85918 -71.43413 7726 ft 135 kts 50°
2026-04-14 01:29 8.86529 -71.42688 7899 ft 136 kts 50°
2026-04-14 01:30 8.87141 -71.41960 8066 ft 135 kts 50°
2026-04-14 01:30 8.87750 -71.41229 8218 ft 137 kts 50°
2026-04-14 01:30 8.88375 -71.40482 8373 ft 140 kts 50°
2026-04-14 01:30 8.89011 -71.39727 8504 ft 142 kts 50°
2026-04-14 01:31 8.89651 -71.38965 8627 ft 142 kts 50°
2026-04-14 01:31 8.90285 -71.38205 8750 ft 144 kts 50°
2026-04-14 01:31 8.90935 -71.37429 8877 ft 145 kts 50°
2026-04-14 01:31 8.91592 -71.36646 9003 ft 147 kts 50°
2026-04-14 01:32 8.92252 -71.35857 9130 ft 147 kts 50°
2026-04-14 01:32 8.92916 -71.35065 9260 ft 147 kts 50°
2026-04-14 01:32 8.93577 -71.34274 9387 ft 147 kts 50°
2026-04-14 01:32 8.94232 -71.33480 9495 ft 148 kts 52°
2026-04-14 01:33 8.94901 -71.32658 9496 ft 155 kts 51°
2026-04-14 01:33 8.95606 -71.31813 9504 ft 159 kts 51°
2026-04-14 01:33 8.96328 -71.30950 9509 ft 162 kts 50°
2026-04-14 01:33 8.97065 -71.30071 9507 ft 165 kts 51°
2026-04-14 01:34 8.97809 -71.29180 9508 ft 167 kts 51°
2026-04-14 01:34 8.98561 -71.28280 9512 ft 168 kts 51°
2026-04-14 01:34 8.99312 -71.27385 9504 ft 169 kts 51°
2026-04-14 01:34 9.00074 -71.26472 9505 ft 170 kts 51°
2026-04-14 01:35 9.00840 -71.25558 9505 ft 171 kts 51°
2026-04-14 01:35 9.01607 -71.24642 9507 ft 171 kts 51°
2026-04-14 01:35 9.02376 -71.23724 9509 ft 171 kts 51°
2026-04-14 01:35 9.03144 -71.22805 9510 ft 171 kts 51°
2026-04-14 01:36 9.03914 -71.21884 9507 ft 171 kts 51°
2026-04-14 01:36 9.04683 -71.20966 9511 ft 171 kts 51°
2026-04-14 01:36 9.05451 -71.20046 9503 ft 171 kts 51°
2026-04-14 01:36 9.06219 -71.19129 9507 ft 171 kts 51°
2026-04-14 01:37 9.06991 -71.18207 9505 ft 172 kts 50°
2026-04-14 01:37 9.07768 -71.17289 9498 ft 173 kts 51°
2026-04-14 01:37 9.08542 -71.16362 9494 ft 172 kts 51°
2026-04-14 01:37 9.09313 -71.15440 9493 ft 171 kts 51°
2026-04-14 01:38 9.10846 -71.13609 9496 ft 169 kts 51°
2026-04-14 01:38 9.11606 -71.12700 9495 ft 169 kts 51°
2026-04-14 01:38 9.12365 -71.11792 9497 ft 168 kts 51°
2026-04-14 01:39 9.13120 -71.10890 9490 ft 168 kts 51°
2026-04-14 01:39 9.13871 -71.09992 9492 ft 167 kts 51°
2026-04-14 01:39 9.14622 -71.09094 9492 ft 167 kts 51°
2026-04-14 01:39 9.15373 -71.08195 9494 ft 167 kts 51°
2026-04-14 01:40 9.16127 -71.07294 9492 ft 168 kts 51°
2026-04-14 01:40 9.16870 -71.06403 9491 ft 167 kts 51°
2026-04-14 01:40 9.17621 -71.05505 9491 ft 167 kts 51°
2026-04-14 01:40 9.18370 -71.04609 9491 ft 167 kts 51°
2026-04-14 01:41 9.19119 -71.03714 9490 ft 167 kts 51°
2026-04-14 01:41 9.19867 -71.02818 9492 ft 166 kts 51°
2026-04-14 01:41 9.20613 -71.01925 9491 ft 166 kts 51°
2026-04-14 01:41 9.21358 -71.01034 9491 ft 166 kts 51°
2026-04-14 01:42 9.22104 -71.00142 9494 ft 166 kts 51°
2026-04-14 01:42 9.22846 -70.99251 9500 ft 165 kts 51°
2026-04-14 01:42 9.23588 -70.98363 9503 ft 165 kts 51°
2026-04-14 01:42 9.24425 -70.97578 9496 ft 164 kts 43°
2026-04-14 01:43 9.25152 -70.96691 9495 ft 164 kts 56°
2026-04-14 01:43 9.25814 -70.95766 9492 ft 164 kts 53°
2026-04-14 01:43 9.26545 -70.94852 9495 ft 166 kts 51°
2026-04-14 01:43 9.27289 -70.93958 9493 ft 166 kts 51°
2026-04-14 01:44 9.28034 -70.93067 9492 ft 166 kts 51°
2026-04-14 01:44 9.28766 -70.92189 9497 ft 165 kts 51°
2026-04-14 01:44 9.29505 -70.91303 9502 ft 164 kts 51°
2026-04-14 01:44 9.30242 -70.90418 9504 ft 164 kts 51°
2026-04-14 01:45 9.30981 -70.89534 9496 ft 165 kts 51°
2026-04-14 01:45 9.31719 -70.88647 9500 ft 165 kts 51°
2026-04-14 01:45 9.32460 -70.87758 9500 ft 165 kts 51°
2026-04-14 01:45 9.33202 -70.86870 9503 ft 166 kts 51°
2026-04-14 01:46 9.33946 -70.85976 9496 ft 166 kts 51°
2026-04-14 01:46 9.34692 -70.85081 9503 ft 166 kts 51°
2026-04-14 01:46 9.35437 -70.84189 9501 ft 165 kts 51°
2026-04-14 01:46 9.36169 -70.83312 9501 ft 165 kts 51°
2026-04-14 01:47 9.36909 -70.82423 9498 ft 165 kts 51°
2026-04-14 01:47 9.37652 -70.81530 9503 ft 166 kts 51°
2026-04-14 01:47 9.38401 -70.80631 9501 ft 167 kts 51°
2026-04-14 01:47 9.39146 -70.79736 9504 ft 166 kts 51°
2026-04-14 01:48 9.39890 -70.78843 9501 ft 166 kts 51°
2026-04-14 01:48 9.40635 -70.77949 9503 ft 166 kts 51°
2026-04-14 01:48 9.41382 -70.77052 9504 ft 166 kts 51°
2026-04-14 01:48 9.42130 -70.76153 9505 ft 167 kts 51°
2026-04-14 01:49 9.42880 -70.75253 9502 ft 167 kts 51°
2026-04-14 01:49 9.43632 -70.74350 9505 ft 168 kts 51°
2026-04-14 01:49 9.44383 -70.73448 9507 ft 168 kts 51°
2026-04-14 01:49 9.45138 -70.72542 9474 ft 169 kts 51°
2026-04-14 01:50 9.45907 -70.71615 9301 ft 178 kts 51°
2026-04-14 01:50 9.46710 -70.70646 9134 ft 181 kts 51°
2026-04-14 01:50 9.47530 -70.69665 8965 ft 183 kts 51°
2026-04-14 01:50 9.48357 -70.68671 8790 ft 186 kts 51°
2026-04-14 01:51 9.49192 -70.67668 8614 ft 186 kts 51°
2026-04-14 01:51 9.50025 -70.66666 8448 ft 186 kts 51°
2026-04-14 01:51 9.50857 -70.65666 8278 ft 186 kts 51°
2026-04-14 01:51 9.51588 -70.64599 8100 ft 185 kts 68°
2026-04-14 01:52 9.51938 -70.63353 7925 ft 184 kts 76°
2026-04-14 01:52 9.52282 -70.62104 7752 ft 183 kts 75°
2026-04-14 01:52 9.52633 -70.60861 7577 ft 183 kts 75°
2026-04-14 01:52 9.52975 -70.59621 7402 ft 181 kts 75°
2026-04-14 01:53 9.53305 -70.58424 7223 ft 175 kts 75°
2026-04-14 01:53 9.53623 -70.57271 7039 ft 166 kts 75°
2026-04-14 01:53 9.53928 -70.56158 6826 ft 160 kts 77°
2026-04-14 01:53 9.53957 -70.55075 6555 ft 150 kts 103°
2026-04-14 01:54 9.53549 -70.54144 6277 ft 142 kts 127°
2026-04-14 01:54 9.52839 -70.53485 6014 ft 136 kts 149°
2026-04-14 01:54 9.51966 -70.53166 5751 ft 132 kts 172°
2026-04-14 01:54 9.51075 -70.53201 5516 ft 124 kts 193°
2026-04-14 01:55 9.50321 -70.53437 5293 ft 108 kts 196°
2026-04-14 01:55 9.49622 -70.53647 5039 ft 102 kts 196°
2026-04-14 01:55 9.48948 -70.53853 4784 ft 101 kts 196°
2026-04-14 01:55 9.48275 -70.54058 4544 ft 99 kts 196°
2026-04-14 01:56 9.47641 -70.54251 4405 ft 92 kts 195°
2026-04-14 01:56 9.47035 -70.54432 4280 ft 92 kts 194°
2026-04-14 01:56 9.46415 -70.54619 4167 ft 94 kts 195°
2026-04-14 01:56 9.45777 -70.54816 4044 ft 97 kts 195°
2026-04-14 01:57 9.45126 -70.55018 3916 ft 98 kts 195°
2026-04-14 01:57 9.44475 -70.55219 3789 ft 98 kts 195°
2026-04-14 01:57 9.43807 -70.55424 3667 ft 107 kts 197°
2026-04-14 01:57 9.43098 -70.55651 3510 ft 106 kts 195°
2026-04-14 01:58 9.42392 -70.55862 3385 ft 107 kts 196°
2026-04-14 01:58 9.41670 -70.56086 3209 ft 107 kts 196°
2026-04-14 01:58 9.40970 -70.56302 3066 ft 103 kts 195°
2026-04-14 01:58 9.40289 -70.56511 2928 ft 101 kts 195°
2026-04-14 01:59 9.39620 -70.56717 2791 ft 100 kts 195°
2026-04-14 01:59 9.38931 -70.56928 2661 ft 106 kts 197°
2026-04-14 01:59 9.38243 -70.57143 2517 ft 101 kts 196°
2026-04-14 01:59 9.37579 -70.57347 2384 ft 99 kts 197°
2026-04-14 02:00 9.36928 -70.57547 2246 ft 96 kts 197°
2026-04-14 02:00 9.36300 -70.57745 2118 ft 93 kts 196°
2026-04-14 02:00 9.35693 -70.57938 2017 ft 93 kts 197°
2026-04-14 02:00 9.35068 -70.58125 1878 ft 92 kts 197°
2026-04-14 02:01 9.34502 -70.58303 1840 ft 75 kts 197°
2026-04-14 02:01 9.34118 -70.58423 1874 ft 41 kts 197°
2026-04-14 02:01 9.33970 -70.58480 1885 ft 13 kts 251°
2026-04-14 02:01 9.33977 -70.58509 1888 ft 3 kts 294°
2026-04-14 02:02 9.33985 -70.58534 1887 ft 6 kts 282°
2026-04-14 02:02 9.34024 -70.58579 1885 ft 12 kts 330°
2026-04-14 02:02 9.34056 -70.58603 1884 ft 0 kts 193°